TimeEDT,TemperatureF,Dew PointF,Humidity,Sea Level PressureIn,VisibilityMPH,Wind Direction,Wind SpeedMPH,Gust SpeedMPH,PrecipitationIn,Events,Conditions,WindDirDegrees,DateUTC
12:52 AM,45.0,44.1,97,29.96,9.0,WNW,9.2,-,0.01,,Overcast,290,2012-10-06 04:52:00
1:03 AM,44.6,44.6,100,29.98,4.0,West,8.1,-,0.02,Rain,Heavy Rain,280,2012-10-06 05:03:00
1:17 AM,42.8,39.2,87,29.97,4.0,NW,10.4,24.2,0.07,Rain,Rain,310,2012-10-06 05:17:00
1:25 AM,41.0,41.0,100,29.97,3.0,NW,11.5,-,0.11,Rain,Heavy Rain,320,2012-10-06 05:25:00
1:52 AM,41.0,39.9,96,29.99,4.0,NW,11.5,-,0.20,Rain,Rain,320,2012-10-06 05:52:00
2:04 AM,41.0,41.0,100,29.99,6.0,NW,12.7,-,0.04,Rain,Rain,310,2012-10-06 06:04:00
2:52 AM,41.0,41.0,100,29.99,10.0,Calm,Calm,-,0.16,Rain,Light Rain,0,2012-10-06 06:52:00
2:58 AM,41.0,41.0,100,29.98,10.0,WSW,4.6,-,0.00,Rain,Light Rain,250,2012-10-06 06:58:00
3:14 AM,41.0,41.0,100,29.98,10.0,West,4.6,-,0.00,,Overcast,260,2012-10-06 07:14:00
3:21 AM,41.0,41.0,100,29.97,10.0,West,3.5,-,0.00,,Overcast,260,2012-10-06 07:21:00
3:52 AM,42.1,41.0,96,29.97,10.0,WNW,3.5,-,0.00,,Overcast,290,2012-10-06 07:52:00
4:39 AM,42.8,41.0,93,29.98,10.0,West,9.2,-,N/A,,Overcast,260,2012-10-06 08:39:00
4:52 AM,42.1,41.0,96,29.99,10.0,West,8.1,-,N/A,,Overcast,270,2012-10-06 08:52:00
5:20 AM,41.0,39.2,93,29.98,10.0,West,10.4,-,N/A,,Mostly Cloudy,270,2012-10-06 09:20:00
5:47 AM,41.0,39.2,93,29.98,10.0,West,6.9,-,N/A,,Mostly Cloudy,270,2012-10-06 09:47:00
5:52 AM,41.0,39.9,96,30.00,10.0,West,9.2,-,N/A,,Overcast,260,2012-10-06 09:52:00
7:52 AM,37.9,37.9,100,30.03,7.0,WSW,8.1,-,N/A,,Partly Cloudy,250,2012-10-06 11:52:00
8:52 AM,41.0,39.0,93,30.06,10.0,WSW,9.2,-,N/A,,Partly Cloudy,250,2012-10-06 12:52:00
9:52 AM,44.1,37.9,79,30.08,10.0,West,10.4,-,N/A,,Clear,270,2012-10-06 13:52:00
10:52 AM,46.9,39.0,74,30.08,10.0,West,10.4,-,N/A,,Clear,260,2012-10-06 14:52:00
11:22 AM,48.2,37.4,66,30.06,10.0,West,12.7,17.3,N/A,,Mostly Cloudy,260,2012-10-06 15:22:00
11:52 AM,48.0,36.0,63,30.08,10.0,WNW,10.4,-,N/A,,Mostly Cloudy,290,2012-10-06 15:52:00
11:59 AM,46.4,35.6,66,30.06,10.0,West,8.1,-,N/A,,Mostly Cloudy,270,2012-10-06 15:59:00
12:52 PM,48.9,34.0,56,30.08,10.0,West,12.7,-,N/A,,Partly Cloudy,260,2012-10-06 16:52:00
1:52 PM,50.0,34.0,54,30.07,10.0,West,11.5,18.4,N/A,,Scattered Clouds,280,2012-10-06 17:52:00
2:52 PM,53.1,35.1,50,30.06,10.0,West,11.5,18.4,N/A,,Partly Cloudy,270,2012-10-06 18:52:00
3:52 PM,53.1,34.0,48,30.06,10.0,West,11.5,21.9,N/A,,Partly Cloudy,260,2012-10-06 19:52:00
4:52 PM,53.1,34.0,48,30.05,10.0,West,11.5,17.3,N/A,,Scattered Clouds,260,2012-10-06 20:52:00
5:52 PM,50.0,34.0,54,30.07,10.0,WNW,5.8,-,N/A,,Clear,290,2012-10-06 21:52:00
6:52 PM,48.0,35.1,61,30.10,10.0,WNW,4.6,-,N/A,,Partly Cloudy,290,2012-10-06 22:52:00
7:52 PM,45.0,35.1,68,30.12,10.0,NW,8.1,-,N/A,,Mostly Cloudy,310,2012-10-06 23:52:00
8:52 PM,44.1,34.0,68,30.13,10.0,NW,5.8,-,N/A,,Mostly Cloudy,310,2012-10-07 00:52:00
9:52 PM,42.1,35.1,76,30.14,10.0,West,3.5,-,N/A,,Scattered Clouds,260,2012-10-07 01:52:00
10:52 PM,42.1,36.0,79,30.14,10.0,SW,3.5,-,N/A,,Mostly Cloudy,230,2012-10-07 02:52:00
11:52 PM,42.1,35.1,76,30.12,10.0,WNW,4.6,-,N/A,,Clear,290,2012-10-07 03:52:00